Radiation Dose at Monitoring Post of Fukushima Daini Nuclear Power Station
Date,Time,MP-1(microSv/h),MP-2(microSv/h),MP-3(microSv/h),MP-4(microSv/h),MP-5(microSv/h),MP-6(microSv/h),MP-7(microSv/h),Wind Direction,Wind Velocity(m/s),Rain
2020/01/28,00:00,0.182,0.162,0.277,0.257,0.253,0.140,0.085,east-northeast,6.4,No
2020/01/28,00:10,0.182,0.161,0.275,0.257,0.251,0.140,0.086,east-northeast,5.8,Yes
2020/01/28,00:20,0.181,0.162,0.275,0.257,0.253,0.140,0.087,east-northeast,5.0,Yes
2020/01/28,00:30,0.182,0.162,0.275,0.256,0.253,0.140,0.087,east-northeast,5.1,No
2020/01/28,00:40,0.182,0.164,0.276,0.256,0.253,0.140,0.086,east-northeast,6.4,Yes
2020/01/28,00:50,0.182,0.163,0.275,0.256,0.253,0.139,0.086,east-northeast,5.4,Yes
2020/01/28,01:00,0.182,0.162,0.275,0.255,0.253,0.140,0.086,east-northeast,4.9,No
2020/01/28,01:10,0.181,0.163,0.276,0.256,0.253,0.140,0.087,east-northeast,5.9,No
2020/01/28,01:20,0.182,0.162,0.275,0.256,0.253,0.140,0.086,east-northeast,6.0,No
2020/01/28,01:30,0.183,0.162,0.275,0.257,0.254,0.140,0.086,east-northeast,4.8,No
2020/01/28,01:40,0.182,0.162,0.276,0.256,0.253,0.140,0.086,east-northeast,5.5,Yes
2020/01/28,01:50,0.182,0.163,0.278,0.257,0.253,0.140,0.085,east-northeast,5.6,Yes
2020/01/28,02:00,0.182,0.162,0.276,0.257,0.254,0.141,0.086,northeast,6.6,No
2020/01/28,02:10,0.181,0.162,0.277,0.256,0.255,0.140,0.086,northeast,5.7,No
2020/01/28,02:20,0.182,0.163,0.275,0.256,0.253,0.141,0.085,east-northeast,6.7,No
2020/01/28,02:30,0.182,0.162,0.275,0.256,0.252,0.139,0.085,northeast,5.8,Yes
2020/01/28,02:40,0.182,0.163,0.276,0.256,0.254,0.140,0.086,northeast,6.4,Yes
2020/01/28,02:50,0.183,0.163,0.276,0.257,0.255,0.141,0.087,northeast,6.2,Yes
2020/01/28,03:00,0.184,0.164,0.276,0.258,0.254,0.142,0.088,east-northeast,5.4,Yes
2020/01/28,03:10,0.185,0.166,0.278,0.258,0.255,0.144,0.089,east-northeast,5.7,Yes
2020/01/28,03:20,0.187,0.169,0.279,0.259,0.256,0.144,0.091,east-northeast,3.6,Yes
2020/01/28,03:30,0.188,0.169,0.281,0.260,0.255,0.146,0.093,east-northeast,5.5,Yes
2020/01/28,03:40,0.188,0.169,0.280,0.260,0.256,0.146,0.094,east-northeast,7.0,Yes
2020/01/28,03:50,0.186,0.170,0.280,0.260,0.256,0.146,0.093,northeast,4.9,Yes
2020/01/28,04:00,0.187,0.169,0.280,0.260,0.256,0.146,0.093,northeast,6.0,Yes
2020/01/28,04:10,0.187,0.168,0.279,0.257,0.256,0.144,0.093,northeast,6.8,Yes
2020/01/28,04:20,0.186,0.168,0.279,0.257,0.254,0.144,0.091,northeast,7.3,Yes
2020/01/28,04:30,0.184,0.165,0.277,0.257,0.254,0.143,0.089,northeast,7.4,Yes
2020/01/28,04:40,0.184,0.166,0.276,0.256,0.254,0.143,0.090,northeast,9.0,Yes
2020/01/28,04:50,0.183,0.164,0.276,0.256,0.252,0.142,0.089,northeast,9.6,Yes
2020/01/28,05:00,0.184,0.164,0.276,0.256,0.252,0.141,0.088,northeast,8.2,Yes
2020/01/28,05:10,0.182,0.164,0.275,0.254,0.252,0.140,0.087,northeast,9.0,No
2020/01/28,05:20,0.182,0.163,0.274,0.255,0.253,0.140,0.087,northeast,7.4,Yes
2020/01/28,05:30,0.182,0.163,0.274,0.254,0.252,0.140,0.086,northeast,9.2,Yes
2020/01/28,05:40,0.182,0.163,0.275,0.254,0.251,0.139,0.087,northeast,7.8,Yes
2020/01/28,05:50,0.181,0.162,0.274,0.255,0.252,0.140,0.086,northeast,7.3,Yes
2020/01/28,06:00,0.182,0.163,0.275,0.255,0.251,0.140,0.087,northeast,7.9,Yes
2020/01/28,06:10,0.183,0.164,0.276,0.256,0.252,0.141,0.087,northeast,6.3,Yes
2020/01/28,06:20,0.184,0.164,0.276,0.257,0.253,0.142,0.088,north-northeast,5.9,Yes
2020/01/28,06:30,0.184,0.165,0.275,0.258,0.253,0.143,0.089,north-northeast,3.8,Yes
2020/01/28,06:40,0.184,0.166,0.276,0.257,0.254,0.142,0.089,north,4.1,Yes
2020/01/28,06:50,0.184,0.165,0.277,0.257,0.253,0.143,0.089,north-northeast,5.1,Yes
2020/01/28,07:00,0.185,0.166,0.277,0.257,0.254,0.142,0.088,northeast,5.2,Yes
2020/01/28,07:10,0.183,0.164,0.274,0.255,0.252,0.141,0.088,northeast,5.4,Yes
2020/01/28,07:20,0.183,0.164,0.276,0.254,0.254,0.142,0.088,northeast,6.2,Yes
2020/01/28,07:30,0.183,0.164,0.276,0.253,0.253,0.142,0.089,northeast,5.5,Yes
2020/01/28,07:40,0.183,0.164,0.275,0.254,0.252,0.142,0.089,northeast,7.7,Yes
2020/01/28,07:50,0.184,0.165,0.275,0.256,0.252,0.142,0.088,northeast,7.3,Yes
2020/01/28,08:00,0.184,0.165,0.276,0.255,0.252,0.141,0.088,northeast,9.6,Yes
2020/01/28,08:10,0.183,0.166,0.277,0.255,0.253,0.141,0.088,northeast,8.4,Yes
2020/01/28,08:20,0.184,0.166,0.275,0.256,0.252,0.142,0.089,northeast,10.0,Yes
2020/01/28,08:30,0.184,0.166,0.275,0.255,0.253,0.142,0.087,northeast,9.2,Yes
2020/01/28,08:40,0.184,0.166,0.276,0.257,0.252,0.143,0.089,northeast,9.5,Yes
2020/01/28,08:50,0.184,0.167,0.275,0.257,0.254,0.144,0.088,east-northeast,10.3,Yes
2020/01/28,09:00,0.187,0.167,0.277,0.256,0.254,0.143,0.090,east-northeast,10.6,Yes
2020/01/28,09:10,0.185,0.168,0.277,0.257,0.254,0.143,0.090,east-northeast,9.6,Yes
2020/01/28,09:20,0.186,0.168,0.276,0.259,0.256,0.145,0.091,northeast,7.9,Yes
2020/01/28,09:30,0.187,0.170,0.277,0.258,0.256,0.145,0.093,east-northeast,9.3,Yes
2020/01/28,09:40,0.187,0.171,0.279,0.259,0.256,0.146,0.093,east-northeast,8.5,Yes
2020/01/28,09:50,0.187,0.171,0.277,0.258,0.257,0.147,0.094,east-northeast,8.8,Yes
2020/01/28,10:00,0.187,0.170,0.277,0.258,0.256,0.146,0.092,east-northeast,9.2,Yes
2020/01/28,10:10,0.186,0.169,0.276,0.259,0.256,0.145,0.092,east-northeast,8.9,Yes
2020/01/28,10:20,0.186,0.169,0.277,0.258,0.257,0.146,0.094,east-northeast,10.1,Yes
2020/01/28,10:30,0.188,0.170,0.279,0.257,0.258,0.148,0.096,east-northeast,9.0,Yes
2020/01/28,10:40,0.186,0.171,0.278,0.259,0.258,0.148,0.097,east-northeast,10.6,Yes
2020/01/28,10:50,0.188,0.172,0.278,0.259,0.258,0.149,0.097,east-northeast,10.0,Yes
2020/01/28,11:00,0.189,0.172,0.279,0.258,0.259,0.149,0.098,east,9.6,Yes
2020/01/28,11:10,0.188,0.173,0.278,0.258,0.258,0.150,0.098,east-northeast,9.5,Yes
2020/01/28,11:20,0.188,0.172,0.278,0.258,0.258,0.150,0.098,east,9.8,Yes
2020/01/28,11:30,0.188,0.172,0.277,0.260,0.258,0.150,0.099,-,CALM,Yes
2020/01/28,11:40,0.188,0.173,0.279,0.258,0.260,0.150,0.100,east,10.3,Yes
2020/01/28,11:50,0.187,0.173,0.277,0.259,0.259,0.150,0.099,east,10.1,Yes
2020/01/28,12:00,0.187,0.171,0.277,0.260,0.258,0.150,0.098,east,10.3,Yes
2020/01/28,12:10,0.188,0.171,0.276,0.259,0.258,0.149,0.099,east,11.8,Yes
2020/01/28,12:20,0.186,0.171,0.276,0.257,0.258,0.148,0.097,east,12.0,Yes
2020/01/28,12:30,0.187,0.170,0.275,0.255,0.257,0.147,0.097,east,12.0,Yes
2020/01/28,12:40,0.185,0.169,0.274,0.255,0.257,0.146,0.096,east,12.6,Yes
2020/01/28,12:50,0.185,0.168,0.275,0.256,0.256,0.147,0.097,east,12.0,Yes
2020/01/28,13:00,0.185,0.168,0.274,0.255,0.256,0.145,0.095,east,10.7,Yes
2020/01/28,13:10,0.184,0.167,0.274,0.255,0.255,0.145,0.095,east,11.7,Yes
2020/01/28,13:20,0.185,0.168,0.274,0.254,0.256,0.146,0.096,east-northeast,10.4,Yes
2020/01/28,13:30,0.184,0.167,0.274,0.256,0.256,0.146,0.096,east-northeast,11.2,Yes
2020/01/28,13:40,0.185,0.168,0.276,0.255,0.257,0.147,0.098,east-northeast,10.1,Yes
2020/01/28,13:50,0.185,0.168,0.275,0.255,0.256,0.147,0.098,east-northeast,11.1,Yes
2020/01/28,14:00,0.184,0.170,0.274,0.254,0.257,0.147,0.098,east-northeast,11.5,Yes
2020/01/28,14:10,0.184,0.169,0.274,0.253,0.257,0.146,0.097,east-northeast,10.4,Yes
2020/01/28,14:20,0.183,0.168,0.273,0.253,0.256,0.145,0.096,east-northeast,11.5,Yes
2020/01/28,14:30,0.183,0.167,0.272,0.254,0.256,0.144,0.095,east,12.0,Yes
2020/01/28,14:40,0.183,0.167,0.270,0.252,0.254,0.143,0.093,east,11.1,Yes
2020/01/28,14:50,0.182,0.164,0.272,0.253,0.255,0.142,0.093,east,12.3,Yes
2020/01/28,15:00,0.183,0.166,0.273,0.253,0.254,0.144,0.094,east-northeast,11.8,Yes
2020/01/28,15:10,0.183,0.166,0.273,0.253,0.255,0.145,0.095,east,11.4,Yes
2020/01/28,15:20,0.184,0.168,0.274,0.253,0.255,0.146,0.097,east,11.4,Yes
2020/01/28,15:30,0.185,0.169,0.275,0.256,0.257,0.147,0.097,east,10.9,Yes
2020/01/28,15:40,0.185,0.170,0.274,0.255,0.259,0.147,0.096,east-northeast,10.9,Yes
2020/01/28,15:50,0.184,0.169,0.276,0.256,0.258,0.146,0.097,east,10.6,Yes
2020/01/28,16:00,0.183,0.168,0.274,0.254,0.258,0.145,0.096,east,12.0,Yes
2020/01/28,16:10,0.184,0.168,0.275,0.256,0.257,0.145,0.094,east-northeast,10.7,Yes
2020/01/28,16:20,0.184,0.168,0.275,0.255,0.257,0.145,0.094,east,11.4,Yes
2020/01/28,16:30,0.183,0.168,0.275,0.254,0.257,0.144,0.093,east-northeast,11.4,Yes
2020/01/28,16:40,0.184,0.168,0.275,0.254,0.256,0.144,0.094,east-northeast,11.1,Yes
2020/01/28,16:50,0.184,0.168,0.275,0.256,0.256,0.144,0.092,east-northeast,10.6,Yes
2020/01/28,17:00,0.182,0.167,0.275,0.255,0.255,0.143,0.092,east-northeast,11.2,Yes
2020/01/28,17:10,0.182,0.166,0.274,0.253,0.254,0.142,0.091,east,11.5,Yes
2020/01/28,17:20,0.182,0.164,0.271,0.253,0.254,0.141,0.090,east,11.4,Yes
2020/01/28,17:30,0.182,0.165,0.272,0.253,0.254,0.142,0.091,east-northeast,11.4,Yes
2020/01/28,17:40,0.181,0.166,0.274,0.253,0.255,0.143,0.092,east-northeast,11.5,Yes
2020/01/28,17:50,0.183,0.167,0.273,0.253,0.255,0.144,0.093,east-northeast,10.7,Yes
2020/01/28,18:00,0.185,0.169,0.275,0.254,0.256,0.144,0.095,east-northeast,11.7,Yes
2020/01/28,18:10,0.184,0.169,0.276,0.256,0.260,0.147,0.096,east,12.0,Yes
2020/01/28,18:20,0.185,0.171,0.275,0.257,0.259,0.148,0.098,east-northeast,11.2,Yes
2020/01/28,18:30,0.186,0.174,0.277,0.255,0.258,0.149,0.099,east-northeast,11.5,Yes
2020/01/28,18:40,0.186,0.174,0.277,0.256,0.260,0.151,0.101,east-northeast,9.0,Yes
2020/01/28,18:50,0.187,0.174,0.280,0.257,0.262,0.152,0.102,east-northeast,10.3,Yes
2020/01/28,19:00,0.187,0.176,0.280,0.259,0.262,0.152,0.104,east-northeast,12.3,Yes
2020/01/28,19:10,0.187,0.178,0.279,0.259,0.263,0.153,0.104,east-northeast,11.7,Yes
2020/01/28,19:20,0.188,0.178,0.279,0.259,0.265,0.154,0.105,east-northeast,12.0,Yes
2020/01/28,19:30,0.188,0.178,0.280,0.260,0.263,0.154,0.105,east-northeast,12.5,Yes
2020/01/28,19:40,0.189,0.177,0.278,0.257,0.263,0.153,0.104,east-northeast,12.6,Yes
2020/01/28,19:50,0.187,0.178,0.278,0.256,0.262,0.153,0.104,east-northeast,11.4,Yes
2020/01/28,20:00,0.188,0.175,0.278,0.255,0.262,0.152,0.104,east-northeast,11.2,Yes
2020/01/28,20:10,0.186,0.176,0.277,0.256,0.262,0.152,0.104,east-northeast,11.7,Yes
2020/01/28,20:20,0.185,0.174,0.276,0.255,0.261,0.151,0.102,east-northeast,10.6,Yes
2020/01/28,20:30,0.184,0.175,0.274,0.254,0.259,0.150,0.101,east-northeast,11.1,Yes
2020/01/28,20:40,0.185,0.172,0.274,0.254,0.259,0.149,0.101,east-northeast,13.1,Yes
2020/01/28,20:50,0.183,0.173,0.274,0.254,0.258,0.149,0.100,east-northeast,12.0,Yes
2020/01/28,21:00,0.183,0.172,0.273,0.252,0.258,0.148,0.099,east-northeast,9.8,Yes
2020/01/28,21:10,0.182,0.171,0.273,0.252,0.257,0.147,0.098,east-northeast,9.8,Yes
2020/01/28,21:20,0.182,0.172,0.273,0.252,0.258,0.148,0.098,east-northeast,9.2,Yes
2020/01/28,21:30,0.182,0.172,0.273,0.253,0.257,0.147,0.098,east-northeast,10.3,Yes
2020/01/28,21:40,0.182,0.172,0.271,0.253,0.256,0.147,0.098,east-northeast,9.2,Yes
2020/01/28,21:50,0.182,0.170,0.272,0.251,0.258,0.146,0.098,east-northeast,10.0,Yes
2020/01/28,22:00,0.182,0.171,0.271,0.252,0.256,0.146,0.098,east-northeast,8.6,Yes
2020/01/28,22:10,0.181,0.171,0.271,0.252,0.256,0.147,0.098,east-northeast,9.2,Yes
2020/01/28,22:20,0.182,0.171,0.270,0.251,0.257,0.146,0.098,east-northeast,8.7,Yes
2020/01/28,22:30,0.180,0.170,0.272,0.251,0.257,0.147,0.097,east-northeast,9.5,Yes
2020/01/28,22:40,0.180,0.171,0.270,0.250,0.256,0.145,0.097,east-northeast,10.1,Yes
2020/01/28,22:50,0.179,0.170,0.271,0.250,0.256,0.144,0.096,east-northeast,9.2,Yes
2020/01/28,23:00,0.180,0.169,0.270,0.250,0.255,0.143,0.096,east-northeast,10.1,Yes
2020/01/28,23:10,0.180,0.168,0.270,0.249,0.256,0.143,0.095,east-northeast,10.6,Yes
2020/01/28,23:20,0.178,0.167,0.268,0.251,0.255,0.142,0.095,east-northeast,10.1,Yes
2020/01/28,23:30,0.178,0.167,0.268,0.249,0.255,0.142,0.094,east-northeast,10.0,Yes
2020/01/28,23:40,0.178,0.167,0.269,0.248,0.253,0.141,0.094,east-northeast,10.3,Yes
2020/01/28,23:50,0.177,0.166,0.268,0.247,0.253,0.140,0.094,east-northeast,10.6,Yes
